Regional Weather Roundup
Issued by NWS

Home | Current Version | Previous Version | Text Only | Print | Product List | Glossary On
Versions: 1 2 3 4 5 6 7 8 9 10 11 12 13 14 15 16 17 18 19 20 21 22 23 24 25 26 27 28 29 30 31 32 33 34 35 36 37 38 39 40 41 42 43 44 45 46 47 48 49 50
000
ASHW40 PHFO 250243
RWRHI

WEATHER ROUNDUP FOR HAWAII
NATIONAL WEATHER SERVICE HONOLULU HI
400 PM HST SAT SEP 24 2016

THIS IS AN AUTOMATED REPORT THAT HAS NOT BEEN QUALITY CONTROLLED.

NOTE..."FAIR" INDICATES FEW OR NO CLOUDS BELOW 12,000 FEET WITH NO
SIGNIFICANT WEATHER AND/OR OBSTRUCTIONS TO VISIBILITY.

* - THESE SITES REPORT LIMITED FIELDS

HIZ001>004-250300-
KAUAI-NIIHAU-

CITY           SKY/WX    TMP DP  RH WIND       PRES   REMARKS
LIHUE APT      MOSUNNY   84  72  67 NE14      30.00S
PORT ALLEN*      N/A     88 N/A N/A E18G28      N/A
POIPU*           N/A     86 N/A N/A E8G16       N/A
PRINCEVILLE*     N/A     82 N/A N/A E10G18      N/A
KOKOLE POINT*    N/A     86 N/A N/A MISG        N/A
MOLOAA DAIRY*    N/A     82  72  69 E3G13       N/A
WAIMEA HTS*      N/A     88  70  55 SW9G17      N/A  HX  92
PUU OPAE*        N/A     79  66  65 W9G16       N/A
PUU LUA*       NOT AVBL
MAKAHA RIDGE*    N/A     82  70  65 NW2G8       N/A
$$

HIZ005>011-250300-
OAHU-

CITY           SKY/WX    TMP DP  RH WIND       PRES   REMARKS
HONOLULU       MOSUNNY   86  67  52 NE12      29.95S
KALAELOA         N/A    N/A N/A N/A MISG      29.96S
KANEOHE MCB    MOSUNNY   83  72  69 NE10      29.96R
WHEELER FIELD  FAIR      83  70  63 E14       29.98R
BELLOWS*         N/A    N/A N/A N/A NE14        N/A
KAHUKU*          N/A    N/A N/A N/A VRB1        N/A
WHEELER*         N/A    N/A N/A N/A NE9G16      N/A
WAIANAE HARBOR   N/A    N/A N/A N/A W10         N/A
DILLINGHAM*      N/A     90  66  45 MISG        N/A  HX  92
KAHUKU TRN*      N/A     82  73  74 W7G18       N/A
KAWAILOA*        N/A     79  66  65 E12G21      N/A
KII*             N/A     82  73  74 E13         N/A
MAKUA RANGE*     N/A     88  72  58 E5G12       N/A  HX  94
OAHU FOREST NW   N/A     75  66  73 E15         N/A
SCHOFIELD BRK*   N/A     81  66  61 MISG        N/A
SCHOFIELD S*   NOT AVBL
WAIANAE VLY*     N/A    N/A N/A N/A MISG        N/A
KUAOKALA*        N/A     79  70  73 NE18G29     N/A
HONOULIUULI*   NOT AVBL
MOKUOLOE IS*   NOT AVBL
PALEHUA*         N/A     73  64  73 NE6G15      N/A
WAIAWA PHB*    NOT AVBL
$$

HIZ012>013-250300-
MOLOKAI-

CITY           SKY/WX    TMP DP  RH WIND       PRES   REMARKS
MOLOKAI AIRPT  MOSUNNY   87  70  56 N9        29.97R HX  92
KALAUPAPA      NOT AVBL
MAKAPULAPAI*     N/A     82  73  74 E18G25      N/A
MOLOKAI 1*     NOT AVBL
PUU ALII*        N/A     72  65  78 NE2G9       N/A
$$

HIZ016-250300-
KAHOOLAWE-

CITY           SKY/WX    TMP DP  RH WIND       PRES   REMARKS
KAHOOLAWE*       N/A     77 N/A N/A E1          N/A
HAKIOAWA*        N/A     80  73  77 MISG      30.39R
HONOKANAIA*      N/A     87  71  57 E18G35    29.87F HX  92
KANELOA*         N/A     82  72  69 E21G35    30.02F
KEALIALALO*    NOT AVBL
LUA MAKIKA*    NOT AVBL
$$

HIZ014>015-250300-
LANAI-

CITY           SKY/WX    TMP DP  RH WIND       PRES   REMARKS
LANAI CITY     FAIR      79  70  73 NE18      30.02R
LANAI 1*       NOT AVBL
$$

HIZ017>028-250300-
MAUI-

CITY           SKY/WX    TMP DP  RH WIND       PRES   REMARKS
KAHULUI        MOSUNNY   88  71  57 NE18G26   29.92S HX  94
KAPALUA-W MAUI MOSUNNY   84  68  58 NE14G26   29.95
HANA AIRPORT     N/A     81  73  78 E3        30.01R
HANA*            N/A     82 N/A N/A E7G14       N/A
HALEAKALA SUMM   N/A     55  39  54 VRB6        N/A
MAALAEA BAY*     N/A     86 N/A N/A N20G28      N/A
HALEAKALA*     NOT AVBL
KAUPO GAP*       N/A     73  73 100 S2G9        N/A
KULA 1*          N/A     63  61  92 NW5         N/A
$$

HIZ023>026-250300-
BIG ISLAND OF HAWAII COAST AND LOWER SLOPES-

CITY           SKY/WX    TMP DP  RH WIND       PRES   REMARKS
KAILUA KONA    MOSUNNY   87  74  64 W10       29.92R HX  95
HILO           MOSUNNY   81  71  71 E9        29.98S
HONOKAA*         N/A     77 N/A N/A VRB1        N/A
KAWAIHAE MWT*    N/A     86 N/A N/A W8          N/A
KAWAIHAE*        N/A     82 N/A N/A W8        29.93S
SOUTH POINT*     N/A     77 N/A N/A N15G23      N/A
UPOLU AIRPORT* NOT AVBL
KAMUELA*       PTCLDY    77  64  65 N14       30.08S
HAKALAU*         N/A     61  60  95 SE3         N/A
KALOKO-HONOKO*   N/A     88  72  58 W7        29.92R HX  94
PALI 2*          N/A     72  64  78 W8G21       N/A
KEALAKOMO*       N/A     82  72  69 E17G25      N/A
KAUPULEHU*       N/A     81  70  69 W10G17      N/A
KAPAPALA*        N/A     73  69  87 E7G16       N/A
LOWER KAHUKU*    N/A    N/A N/A N/A NE3G13      N/A
PUHE CS*         N/A     88  75  66 W3G10       N/A  HX  97
PUHO CS*         N/A     87  71  57 W3G9        N/A  HX  92
PTA KEAMUKU*     N/A     73  64  73 CALM        N/A
WAIKOLOA*        N/A     81  72  74 W5G10       N/A
$$

HIZ027>028-250300-
BIG ISLAND OF HAWAII INTERIOR AND SUMMMITS-

CITY           SKY/WX    TMP DP  RH WIND       PRES   REMARKS
BRADSHAW FIELD MOSUNNY   70  59  67 W10G17    30.31
MK VISITOR CEN   N/A     54  50  87 W2          N/A
MAUNA KEA*       N/A     43  30  61 W8          N/A
MAUNA LOA*       N/A     50  43  76 MISG        N/A
MAUNA LOA 1*   NOT AVBL
PTA KIPUKA*      N/A     73  66  78 N6G12       N/A
PTA RANGE 17*    N/A     66  59  77 NW10G16     N/A
PTA WEST*        N/A     70  66  88 NW10G16     N/A
NENE CABIN*      N/A     59  59 100 SE5         N/A
AHUMOA*          N/A     66  61  85 VRB6        N/A
PTA PORTABLE*  NOT AVBL
PUU MALI*        N/A    N/A N/A N/A NE10        N/A
$$

HIC003-250300-
NORTHWEST ISLANDS-

CITY           SKY/WX    TMP DP  RH WIND       PRES   REMARKS
MIDWAY ISLAND  CLOUDY    75  72  88 NE18G25   30.14S
MIDWAY NOS*      N/A     75 N/A N/A MISG      30.12F
FRENCH FRIGATE NOT AVBL
$$

PHZ110>124-180-250300-
BUOY REPORTS

STATION/POSITION TIME  TEMP    WIND        PRES    WAVE   SWELL
                       AIR SEA DIR/SP/G            HT/PER HT/DIR
                 (UTC) (F)     (DEG/KT/KT) (MB)    (FT/S) (FT/D)
BUOY 51001       NOT AVBL
BUOY 51101       0150   80 81   80/  8/  8 1016.2S   5/ 8   5/ 80
BUOY 51100       NOT AVBL
BUOY 51002       NOT AVBL
BUOY 51003       0150   82 83   80/  8/ 10 1013.3R   6/ 8   7/ 90
BUOY 51004       0150   81 81   60/ 17/ 19 1013.0F   7/ 8   3/140
BARBERS PT BUOY  NOT AVBL
WAIMEA BAY BUOY  0204      82                N/A     3/12   2/340
KAILUA BAY BUOY  0204      81                N/A     6/ 8   2/340
LANAI BUOY       0215      83                N/A     3/14   2/200
BARBERS PT 2     NOT AVBL
PAUWELA MAUI     0209      81                N/A     5/ 8   2/330
HILO             0212      81                N/A     6/ 8   2/340
KANEOHE BAY BUOY 0206      81                N/A     5/ 7   2/ 20
HANALEI KAUAI    NOT AVBL
KAHULUI HARBOR   0200   82 82   30/ 12/ 18 1013.6R
HONOLULU HARBOR  0200   84 82   50/  6/ 11 1015.2R
KILO NALU        NOT AVBL
HILO HARBOR      0200   84 80  100/  5/  7 1014.9R
MOKUOLOE         0100   81 82   40/  8/ 12 1015.2F
NAWILIWILI       0200   81 82   50/  9/ 15 1015.7R
WHOTS BUOY       NOT AVBL
BUOY 51028       NOT AVBL
$$

......................KEY........................................
  SKY/WX - SKY CONDITIONS/PRESENT WEATHER
  TMP    - TEMPERATURE IN FAHRENHEIT
  DWPT   - DEWPOINT IN FAHRENHEIT
  RH     - RELATIVE HUMIDITY IN PERCENT
  WIND   - DIRECTION AND SPEED /MPH FOR ISLANDS...KTS FOR BUOYS/
  PRES   - MEAN SEA LEVEL PRESSURE IN INCHES OF HG
  VSB    - VISIBILITY IN MILES
  HX     - HEAT INDEX
  WCI    - WIND CHILL INDEX
  VRB    - VARIABLE WIND DIRECTION
  N/A    - NOT AVAILABLE




USA.gov is the U.S. government's official web portal to all federal, state and local government web resources and services.